Live-Position
3D-Globus wird geladen...
Über Starlink 1567
Group: 3 satellites
Beschreibung wird geladen...
Nächste Überflüge
Passes for default location (London). Set your location on the main map for personalized predictions.
Höhenverlauf
Loading altitude history...
No altitude history available
Zweizeiliger Elementsatz
1 46038U 20055M 26126.65378916 .01784187 30283-2 12330-2 0 9990
2 46038 53.0742 199.9908 0005283 354.9184 5.1798 16.16545362317999
Epoch: 6. Mai 2026 •
Age: 9 hours
Aktueller Status
Höhe 224.3 km
Geschwindigkeit 7.78 km/s
Subsatellitenpunkt 29.53°N,
13.03°W
Startdatum 7. Aug. 2020
Alter 5.7 years
Typ internet
Startgruppe
Falcon 9 •
Launch 9 •
36 satellites
Starlink 1522
46027
Starlink 1523 46028
Starlink 1526 46029
Starlink 1555 46032
Starlink 1556 46033
Starlink 1557 46034
Starlink 1558 46035
Starlink 1560 46036
Starlink 1569 46039
Starlink 1582 46043
Starlink 1591 46045
Starlink 1524 46047
Starlink 1527 46048
Starlink 1540 46051
Starlink 1541 46052
Starlink 1543 46053
Starlink 1548 46054
Starlink 1554 46055
Starlink 1564 46058
Starlink 1570 46059
...and 15 more
Technische Details
Klassifizierung Payload
Masse 260.00 kg
Trockenmasse 248.00 kg
Gesamtmasse 260.00 kg
Länge 0.20 m
Durchmesser 2.80 m
Spannweite 9.00 m
Form Box + pan
Hersteller SPXS
Bus-Typ Starlink
Phasenstatus In Orbit
Besitzer/Staat SPXS/US
Most Searched
Loading...